VK3GQ-3 Weather Reports


time (UTC)temp
C
wind
direction
speed
KPH
gust
KPH
rain 1hr
cm
rain 24hr
cm
rain mn
cm
humidity
%
barometer
mb
20260510220025 8 41 0.0 4.8 0.00 0.00 0.00 99 1034.0
20260510215404 8 5 0.0 3.2 0.00 0.00 0.00 99 1033.8
20260510214504 8 31 0.0 3.2 0.00 0.00 0.00 99 1033.6
20260510213604 8 15 0.0 4.8 0.00 0.00 0.00 99 1033.3
20260510212725 8 11 0.0 4.8 0.00 0.00 0.00 99 1033.5
20260510211825 8 11 0.0 4.8 0.00 0.00 0.00 99 1033.3
20260510210904 8 5 0.0 3.2 0.00 0.00 0.00 99 1033.1
20260510210004 8 45 0.0 1.6 0.00 0.00 0.00 99 1033.0
20260510205404 8 31 0.0 3.2 0.00 0.00 0.00 99 1032.9
20260510204504 8 0 0.0 0.0 0.00 0.00 0.00 99 1032.9
20260510203604 8 0 0.0 0.0 0.00 0.00 0.00 99 1033.0
20260510202704 8 11 0.0 1.6 0.00 0.00 0.00 99 1032.9
20260510201804 8 50 0.0 4.8 0.00 0.00 0.00 99 1033.0
20260510200925 8 31 0.0 3.2 0.00 0.00 0.00 99 1032.6
20260510200004 8 358 1.6 3.2 0.00 0.00 0.00 99 1032.6
20260510195404 8 354 1.6 4.8 0.00 0.00 0.00 99 1032.6
20260510194504 8 19 0.0 4.8 0.00 0.00 0.00 99 1032.4
20260510193603 8 54 0.0 1.6 0.00 0.00 0.00 99 1032.3
20260510192704 8 44 0.0 4.8 0.00 0.00 0.00 99 1032.4
20260510191804 8 46 1.6 4.8 0.00 0.00 0.00 99 1032.3
20260510190903 8 41 0.0 1.6 0.00 0.00 0.00 99 1032.2
20260510190004 8 39 1.6 4.8 0.00 0.00 0.00 99 1032.1
20260510185404 8 47 0.0 3.2 0.00 0.00 0.00 99 1031.9
20260510184504 8 44 0.0 3.2 0.00 0.00 0.00 99 1031.7
20260510183603 8 37 0.0 3.2 0.00 0.00 0.00 99 1031.9
20260510182703 8 44 0.0 3.2 0.00 0.00 0.00 99 1031.6
20260510181804 8 44 0.0 3.2 0.00 0.00 0.00 99 1031.8
20260510180924 8 40 0.0 1.6 0.00 0.00 0.00 99 1031.7
20260510180004 8 41 0.0 4.8 0.00 0.00 0.00 99 1031.6
20260510175403 8 36 0.0 3.2 0.00 0.00 0.00 99 1031.5
20260510174525 8 44 1.6 3.2 0.00 0.00 0.00 99 1031.4
20260510173604 8 50 1.6 3.2 0.00 0.00 0.00 99 1031.5
20260510172725 8 55 1.6 3.2 0.00 0.00 0.00 99 1031.4
20260510171804 8 49 0.0 3.2 0.00 0.00 0.00 99 1031.5
20260510170903 8 51 0.0 3.2 0.00 0.00 0.00 99 1031.6
20260510170004 8 44 0.0 1.6 0.00 0.00 0.00 99 1031.4
20260510165425 8 0 0.0 0.0 0.00 0.00 0.00 99 1031.3
20260510164504 8 72 0.0 1.6 0.00 0.00 0.00 99 1031.6
20260510163604 8 60 0.0 3.2 0.00 0.00 0.00 99 1031.5
20260510162724 8 61 0.0 1.6 0.00 0.00 0.00 99 1031.5
20260510161824 8 59 1.6 3.2 0.00 0.00 0.00 99 1031.5
20260510160904 8 59 0.0 1.6 0.00 0.00 0.00 99 1031.6
20260510160025 8 0 0.0 0.0 0.00 0.00 0.00 99 1031.7
20260510155424 8 0 0.0 0.0 0.00 0.00 0.00 99 1031.7
20260510154524 8 0 0.0 0.0 0.00 0.00 0.00 99 1031.9
20260510153603 8 0 0.0 0.0 0.00 0.00 0.00 99 1031.6
20260510152703 8 62 0.0 3.2 0.00 0.00 0.00 99 1031.8
20260510151803 8 68 0.0 3.2 0.00 0.00 0.00 99 1031.7
20260510150903 8 70 0.0 3.2 0.00 0.00 0.00 99 1031.7
20260510150004 8 73 0.0 1.6 0.00 0.00 0.00 99 1031.9
20260510145403 8 65 0.0 1.6 0.00 0.03 0.00 99 1032.0
20260510144503 8 56 1.6 3.2 0.00 0.03 0.00 98 1031.8
20260510143604 8 65 0.0 3.2 0.00 0.03 0.00 98 1031.8
20260510142704 8 62 0.0 1.6 0.00 0.03 0.00 98 1031.9
20260510141804 8 47 0.0 1.6 0.00 0.03 0.00 97 1031.8
20260510140904 9 70 0.0 3.2 0.00 0.03 0.00 97 1031.7
20260510140004 9 70 0.0 1.6 0.00 0.03 0.00 97 1031.8
20260510135404 9 69 0.0 3.2 0.00 0.03 0.03 97 1031.9
20260510134505 9 70 0.0 1.6 0.00 0.03 0.03 97 1032.0
20260510133604 9 0 0.0 0.0 0.00 0.03 0.03 97 1032.0
20260510132726 9 70 0.0 1.6 0.00 0.03 0.03 96 1031.7
20260510131804 9 66 0.0 3.2 0.00 0.03 0.03 95 1032.1
20260510130925 9 0 0.0 0.0 0.00 0.03 0.03 94 1032.0
20260510130004 10 132 0.0 3.2 0.00 0.03 0.03 93 1032.1
20260510125425 10 127 0.0 3.2 0.00 0.03 0.03 93 1031.9
20260510124504 10 131 1.6 3.2 0.00 0.03 0.03 93 1032.0
20260510123604 10 142 1.6 3.2 0.00 0.03 0.03 93 1032.3
20260510122704 10 171 0.0 3.2 0.00 0.03 0.03 92 1032.2
20260510121804 10 155 1.6 4.8 0.00 0.03 0.03 93 1032.2
20260510120904 10 152 1.6 3.2 0.00 0.03 0.03 93 1032.3
20260510120004 10 148 1.6 3.2 0.00 0.03 0.03 93 1032.2
20260510115404 10 138 1.6 3.2 0.00 0.03 0.03 93 1032.2
20260510114504 10 134 0.0 3.2 0.00 0.03 0.03 93 1032.1
20260510113604 10 118 0.0 3.2 0.00 0.03 0.03 92 1032.0
20260510112704 10 141 1.6 3.2 0.00 0.03 0.03 91 1031.9
20260510111804 10 151 1.6 3.2 0.00 0.03 0.03 91 1031.8
20260510110904 10 147 1.6 3.2 0.00 0.03 0.03 91 1031.8
20260510110004 11 155 1.6 3.2 0.00 0.03 0.03 90 1031.5
20260510105404 11 196 0.0 3.2 0.00 0.03 0.03 88 1031.7
20260510104504 11 165 1.6 3.2 0.00 0.03 0.03 89 1031.6
20260510103604 11 151 1.6 3.2 0.00 0.03 0.03 89 1031.7
20260510102704 11 118 1.6 6.4 0.00 0.03 0.03 88 1031.6
20260510101804 11 97 0.0 3.2 0.00 0.03 0.03 87 1031.5
20260510100904 11 135 1.6 4.8 0.00 0.03 0.03 87 1031.6
20260510100004 11 104 0.0 3.2 0.00 0.03 0.03 87 1031.4
20260510095404 11 126 0.0 3.2 0.00 0.03 0.03 86 1031.7
20260510094504 11 164 0.0 3.2 0.00 0.03 0.03 86 1031.6
20260510093604 11 162 0.0 3.2 0.00 0.03 0.03 85 1031.5
20260510092704 11 158 0.0 1.6 0.00 0.03 0.03 86 1031.4
20260510091804 11 102 1.6 4.8 0.00 0.03 0.03 86 1031.3
20260510090904 11 125 0.0 4.8 0.00 0.03 0.03 86 1031.4
20260510090004 11 130 0.0 3.2 0.00 0.03 0.03 86 1031.2
20260510085425 11 143 0.0 3.2 0.00 0.03 0.03 85 1031.4
20260510084504 11 134 0.0 4.8 0.00 0.03 0.03 85 1031.1
20260510083604 11 119 1.6 3.2 0.00 0.03 0.03 85 1031.2
20260510082704 11 129 1.6 6.4 0.00 0.03 0.03 85 1031.0
20260510081804 11 128 1.6 1.6 0.00 0.03 0.03 87 1030.9
20260510080904 11 138 0.0 3.2 0.00 0.03 0.03 87 1030.9
20260510080004 11 104 0.0 3.2 0.00 0.03 0.03 87 1030.8
20260510075404 11 117 0.0 4.8 0.00 0.03 0.03 87 1030.9
20260510074525 11 124 1.6 9.7 0.00 0.03 0.03 89 1030.7
20260510073603 11 139 1.6 3.2 0.00 0.03 0.03 89 1030.5
20260510072704 12 132 0.0 1.6 0.00 0.03 0.03 88 1030.7
20260510071803 12 0 0.0 0.0 0.00 0.03 0.03 86 1030.5
20260510070903 13 0 0.0 0.0 0.00 0.03 0.03 83 1030.5
20260510070025 13 0 0.0 0.0 0.00 0.03 0.03 79 1030.4
20260510065403 14 0 0.0 0.0 0.00 0.03 0.03 76 1030.4
20260510064503 15 147 1.6 4.8 0.00 0.03 0.03 74 1030.4
20260510063604 15 13 0.0 3.2 0.00 0.03 0.03 75 1030.3
20260510062704 15 41 0.0 1.6 0.00 0.03 0.03 75 1030.1
20260510061803 14 41 0.0 1.6 0.00 0.03 0.03 76 1030.4
20260510060903 14 85 0.0 3.2 0.00 0.03 0.03 75 1030.2
20260510060004 15 148 1.6 9.7 0.00 0.03 0.03 72 1030.3
20260510055404 16 90 1.6 6.4 0.00 0.03 0.03 70 1030.0
20260510054504 16 103 1.6 6.4 0.00 0.03 0.03 70 1030.1
20260510053603 16 309 1.6 6.4 0.00 0.03 0.03 70 1030.2
20260510052704 16 15 1.6 6.4 0.00 0.03 0.03 71 1029.9
20260510051803 17 320 1.6 9.7 0.00 0.03 0.03 67 1030.0
20260510050904 17 322 1.6 9.7 0.00 0.03 0.03 67 1030.2
20260510050004 17 192 1.6 6.4 0.00 0.03 0.03 65 1030.1
20260510045403 17 241 1.6 4.8 0.00 0.03 0.03 67 1030.0
20260510044504 18 180 0.0 3.2 0.00 0.03 0.03 64 1030.0
20260510043604 16 219 1.6 4.8 0.00 0.03 0.03 70 1030.0
20260510042704 15 263 0.0 3.2 0.00 0.03 0.03 76 1030.2
20260510041804 15 298 0.0 3.2 0.00 0.03 0.03 73 1030.1
20260510040924 14 314 0.0 3.2 0.00 0.03 0.03 76 1030.1
20260510040004 15 193 1.6 4.8 0.00 0.03 0.03 74 1030.3
20260510035424 15 225 1.6 4.8 0.00 0.03 0.03 73 1030.3
20260510034503 17 287 0.0 1.6 0.00 0.03 0.03 70 1030.2
20260510033624 15 152 0.0 3.2 0.00 0.03 0.03 74 1030.1
20260510032703 14 159 1.6 4.8 0.00 0.03 0.03 76 1030.4
20260510031803 14 223 0.0 6.4 0.00 0.03 0.03 75 1030.5
20260510030924 14 314 0.0 4.8 0.00 0.03 0.03 78 1030.5
20260510030004 15 209 0.0 3.2 0.00 0.03 0.03 76 1030.5
20260510025403 15 235 0.0 3.2 0.00 0.03 0.03 77 1030.6
20260510024503 15 267 0.0 3.2 0.00 0.03 0.03 77 1030.6
20260510023603 15 215 0.0 3.2 0.00 0.03 0.03 76 1030.7
20260510022704 15 222 0.0 3.2 0.00 0.03 0.03 77 1030.7
20260510021825 15 224 0.0 6.4 0.00 0.03 0.03 78 1030.8
20260510020904 15 258 0.0 6.4 0.00 0.03 0.03 76 1030.9
20260510020005 15 217 0.0 3.2 0.00 0.03 0.03 78 1031.1
20260510015404 14 166 0.0 1.6 0.00 0.03 0.03 80 1031.1
20260510014504 13 164 0.0 3.2 0.00 0.03 0.03 79 1031.3
20260510013625 14 249 0.0 3.2 0.00 0.03 0.03 82 1031.3
20260510012704 13 324 0.0 3.2 0.00 0.03 0.03 81 1031.3
20260510011825 13 184 0.0 3.2 0.00 0.03 0.03 82 1031.3
20260510010904 13 36 0.0 1.6 0.00 0.03 0.03 83 1031.6
20260510010025 13 22 0.0 3.2 0.00 0.03 0.03 82 1031.5
20260510005404 13 213 0.0 3.2 0.00 0.03 0.03 82 1031.4
20260510004525 13 216 0.0 4.8 0.00 0.03 0.03 83 1031.6
20260510003604 13 182 1.6 3.2 0.00 0.03 0.03 81 1031.4
20260510002704 13 194 0.0 3.2 0.00 0.03 0.03 83 1031.5
20260510001825 13 195 0.0 3.2 0.00 0.03 0.03 83 1031.1
20260510000904 13 206 0.0 1.6 0.00 0.03 0.03 86 1031.4
20260510000004 13 207 0.0 3.2 0.00 0.03 0.03 87 1031.3
20260509235404 13 209 0.0 3.2 0.00 0.03 0.03 89 1031.3
20260509234504 12 292 0.0 3.2 0.00 0.03 0.03 90 1031.3
20260509233604 12 300 0.0 1.6 0.00 0.03 0.03 91 1031.4
20260509232704 12 273 0.0 1.6 0.00 0.03 0.03 92 1031.4
20260509231804 12 271 0.0 1.6 0.00 0.03 0.03 93 1031.5
20260509230904 12 240 0.0 1.6 0.00 0.03 0.03 94 1031.5
20260509230009 12 144 0.0 1.6 0.00 0.03 0.03 95 1031.4
20260509225425 12 0 0.0 0.0 0.00 0.03 0.03 96 1031.5
20260509224504 11 0 0.0 0.0 0.00 0.03 0.03 97 1031.5
20260509223604 11 0 0.0 0.0 0.00 0.03 0.03 98 1031.4
20260509222704 11 0 0.0 0.0 0.00 0.03 0.03 99 1031.2
20260509221804 11 0 0.0 0.0 0.00 0.03 0.03 99 1031.3
20260509220904 11 0 0.0 0.0 0.00 0.03 0.03 99 1031.0